WJA2668 KOTH-CYXC

Flight info

Callsign WJA2668
Flight time 1h 24m
Altitude 37000
Route OTH7 RARES DCT YKM DCT YXC
Aircraft A319/M-SDE3FGHIRWY/LB1

Departure

Time 2026-04-14 19:50
Airport Southwest Oregon Regional Airport (KOTH)

Arrival

Time 2026-04-14 21:14
Airport Cranbrook/Canadian Rockies International Airport (CYXC)
Time Latitude Longitude Altitude Speed Heading
2026-04-14 19:31 43.41676 -124.24918 36 ft 0 kts 250°
2026-04-14 19:45 43.41677 -124.24920 36 ft 0 kts 282°
2026-04-14 19:45 43.41696 -124.24925 35 ft 6 kts 352°
2026-04-14 19:45 43.41749 -124.24936 33 ft 2 kts 348°
2026-04-14 19:45 43.41782 -124.24947 31 ft 8 kts 358°
2026-04-14 19:46 43.41832 -124.24876 27 ft 11 kts 60°
2026-04-14 19:46 43.41874 -124.24781 23 ft 13 kts 60°
2026-04-14 19:46 43.41924 -124.24654 19 ft 16 kts 62°
2026-04-14 19:46 43.41985 -124.24500 14 ft 19 kts 60°
2026-04-14 19:47 43.42044 -124.24354 11 ft 17 kts 62°
2026-04-14 19:47 43.42108 -124.24202 10 ft 15 kts 59°
2026-04-14 19:47 43.42125 -124.24163 10 ft 2 kts 58°
2026-04-14 19:47 43.42138 -124.24134 10 ft 4 kts 60°
2026-04-14 19:48 43.42155 -124.24091 10 ft 5 kts 62°
2026-04-14 19:48 43.42186 -124.24052 9 ft 6 kts 356°
2026-04-14 19:48 43.42232 -124.24083 10 ft 6 kts 332°
2026-04-14 19:48 43.42266 -124.24123 9 ft 6 kts 283°
2026-04-14 19:49 43.42247 -124.24174 9 ft 6 kts 238°
2026-04-14 19:49 43.42201 -124.24285 10 ft 42 kts 239°
2026-04-14 19:49 43.41910 -124.24983 24 ft 123 kts 242°
2026-04-14 19:49 43.41415 -124.26257 269 ft 166 kts 245°
2026-04-14 19:50 43.41177 -124.27841 1041 ft 177 kts 263°
2026-04-14 19:50 43.40985 -124.29446 2093 ft 174 kts 250°
2026-04-14 19:50 43.40534 -124.30991 2891 ft 181 kts 254°
2026-04-14 19:50 43.40358 -124.32791 3317 ft 202 kts 265°
2026-04-14 19:51 43.40306 -124.34803 3792 ft 223 kts 267°
2026-04-14 19:51 43.40312 -124.37000 4332 ft 242 kts 275°
2026-04-14 19:51 43.41016 -124.39154 5006 ft 261 kts 310°
2026-04-14 19:51 43.42598 -124.40378 5926 ft 272 kts 345°
2026-04-14 19:52 43.44490 -124.40190 6814 ft 285 kts 18°
2026-04-14 19:52 43.46088 -124.38605 7603 ft 296 kts 51°
2026-04-14 19:52 43.46912 -124.36021 8334 ft 304 kts 84°
2026-04-14 19:52 43.46690 -124.33151 9105 ft 303 kts 113°
2026-04-14 19:53 43.45835 -124.30506 9850 ft 306 kts 120°
2026-04-14 19:53 43.44904 -124.27866 10477 ft 317 kts 118°
2026-04-14 19:53 43.43992 -124.24989 10878 ft 335 kts 115°
2026-04-14 19:53 43.43276 -124.21886 11231 ft 355 kts 99°
2026-04-14 19:54 43.43469 -124.18476 11855 ft 363 kts 71°
2026-04-14 19:54 43.46660 -124.13528 13243 ft 352 kts 19°
2026-04-14 19:54 43.48948 -124.12249 13904 ft 354 kts 16°
2026-04-14 19:55 43.51237 -124.10989 14543 ft 359 kts 17°
2026-04-14 19:55 43.53548 -124.09672 15228 ft 361 kts 17°
2026-04-14 19:55 43.55867 -124.08319 15890 ft 365 kts 18°
2026-04-14 19:55 43.58171 -124.06959 16516 ft 367 kts 18°
2026-04-14 19:56 43.60527 -124.05552 17170 ft 369 kts 18°
2026-04-14 19:56 43.62876 -124.04150 17778 ft 372 kts 18°
2026-04-14 19:56 43.65229 -124.02558 18387 ft 378 kts 24°
2026-04-14 19:56 43.67449 -124.00602 18970 ft 385 kts 31°
2026-04-14 19:57 43.69564 -123.98307 19537 ft 389 kts 34°
2026-04-14 19:57 43.71633 -123.95930 20075 ft 393 kts 35°
2026-04-14 19:57 43.73743 -123.93476 20608 ft 396 kts 35°
2026-04-14 19:57 43.75835 -123.91041 21157 ft 398 kts 34°
2026-04-14 19:58 43.77954 -123.88581 21672 ft 401 kts 34°
2026-04-14 19:58 43.80104 -123.86091 22175 ft 404 kts 34°
2026-04-14 19:58 43.82243 -123.83616 22660 ft 407 kts 34°
2026-04-14 19:58 43.84429 -123.81084 23132 ft 410 kts 34°
2026-04-14 19:59 43.86601 -123.78570 23599 ft 413 kts 34°
2026-04-14 19:59 43.88806 -123.76013 24077 ft 415 kts 34°
2026-04-14 19:59 43.91045 -123.73416 24552 ft 417 kts 34°
2026-04-14 19:59 43.93259 -123.70845 25020 ft 420 kts 34°
2026-04-14 20:00 43.95502 -123.68239 25471 ft 422 kts 34°
2026-04-14 20:00 43.97737 -123.65638 25919 ft 425 kts 34°
2026-04-14 20:00 43.99994 -123.63009 26359 ft 428 kts 34°
2026-04-14 20:00 44.02304 -123.60318 26805 ft 430 kts 34°
2026-04-14 20:01 44.04576 -123.57665 27256 ft 432 kts 34°
2026-04-14 20:01 44.06867 -123.54988 27661 ft 435 kts 34°
2026-04-14 20:01 44.09196 -123.52267 28063 ft 438 kts 34°
2026-04-14 20:01 44.11528 -123.49539 28466 ft 441 kts 34°
2026-04-14 20:02 44.13884 -123.46775 28900 ft 443 kts 33°
2026-04-14 20:02 44.16252 -123.43996 29274 ft 447 kts 34°
2026-04-14 20:02 44.18612 -123.41227 29643 ft 450 kts 34°
2026-04-14 20:02 44.21017 -123.38402 30032 ft 453 kts 33°
2026-04-14 20:03 44.23404 -123.35593 30391 ft 456 kts 34°
2026-04-14 20:03 44.25841 -123.32719 30788 ft 457 kts 34°
2026-04-14 20:03 44.28253 -123.29868 31328 ft 455 kts 34°
2026-04-14 20:03 44.30653 -123.27028 31898 ft 452 kts 34°
2026-04-14 20:04 44.33035 -123.24208 32446 ft 450 kts 33°
2026-04-14 20:04 44.35405 -123.21403 32956 ft 448 kts 33°
2026-04-14 20:04 44.37761 -123.18611 33471 ft 445 kts 33°
2026-04-14 20:04 44.40123 -123.15809 33952 ft 444 kts 33°
2026-04-14 20:05 44.42446 -123.13049 34425 ft 442 kts 33°
2026-04-14 20:05 44.44761 -123.10295 34855 ft 440 kts 33°
2026-04-14 20:05 44.47112 -123.07501 35231 ft 440 kts 32°
2026-04-14 20:05 44.49420 -123.04753 35591 ft 439 kts 32°
2026-04-14 20:06 44.51733 -123.01995 35882 ft 440 kts 32°
2026-04-14 20:06 44.54081 -122.99197 36165 ft 441 kts 32°
2026-04-14 20:06 44.56396 -122.96432 36432 ft 442 kts 32°
2026-04-14 20:06 44.58719 -122.93655 36668 ft 443 kts 32°
2026-04-14 20:07 44.61059 -122.90855 36981 ft 443 kts 32°
2026-04-14 20:07 44.63417 -122.88028 37120 ft 445 kts 32°
2026-04-14 20:07 44.65750 -122.85226 37118 ft 444 kts 32°
2026-04-14 20:08 44.70466 -122.79558 37112 ft 446 kts 32°
2026-04-14 20:08 44.75137 -122.73927 37109 ft 446 kts 32°
2026-04-14 20:09 44.79849 -122.68238 37110 ft 447 kts 32°
2026-04-14 20:09 44.84544 -122.62557 37107 ft 447 kts 32°
2026-04-14 20:10 44.89234 -122.56868 37096 ft 447 kts 32°
2026-04-14 20:10 44.93969 -122.51109 37090 ft 448 kts 32°
2026-04-14 20:11 44.98666 -122.45384 37074 ft 448 kts 32°
2026-04-14 20:11 45.03342 -122.39674 37062 ft 448 kts 32°
2026-04-14 20:12 45.08055 -122.33903 37054 ft 448 kts 33°
2026-04-14 20:12 45.12759 -122.28133 37055 ft 449 kts 33°
2026-04-14 20:13 45.17473 -122.22340 37059 ft 451 kts 33°
2026-04-14 20:13 45.22189 -122.16530 37054 ft 451 kts 33°
2026-04-14 20:14 45.26903 -122.10701 37045 ft 451 kts 33°
2026-04-14 20:14 45.31625 -122.04851 37035 ft 451 kts 33°
2026-04-14 20:15 45.36335 -121.99007 37035 ft 453 kts 33°
2026-04-14 20:15 45.41050 -121.93141 37036 ft 452 kts 33°
2026-04-14 20:16 45.45751 -121.87281 37044 ft 453 kts 33°
2026-04-14 20:16 45.50467 -121.81387 37045 ft 453 kts 33°
2026-04-14 20:17 45.55187 -121.75476 37039 ft 452 kts 33°
2026-04-14 20:17 45.59908 -121.69550 37033 ft 453 kts 33°
2026-04-14 20:18 45.64629 -121.63612 37033 ft 454 kts 33°
2026-04-14 20:18 45.69322 -121.57692 37027 ft 454 kts 33°
2026-04-14 20:19 45.74057 -121.51701 37030 ft 454 kts 33°
2026-04-14 20:19 45.78759 -121.45749 37041 ft 455 kts 33°
2026-04-14 20:20 45.83476 -121.39756 37035 ft 454 kts 33°
2026-04-14 20:20 45.88184 -121.33761 37016 ft 455 kts 33°
2026-04-14 20:21 45.92922 -121.27715 37007 ft 456 kts 33°
2026-04-14 20:21 45.97622 -121.21703 36998 ft 456 kts 33°
2026-04-14 20:22 46.02369 -121.15612 36982 ft 456 kts 33°
2026-04-14 20:22 46.07096 -121.09541 36960 ft 458 kts 34°
2026-04-14 20:23 46.11806 -121.03470 36940 ft 458 kts 34°
2026-04-14 20:23 46.16534 -120.97359 36929 ft 458 kts 33°
2026-04-14 20:24 46.21286 -120.91209 36919 ft 459 kts 34°
2026-04-14 20:24 46.26023 -120.85062 36911 ft 460 kts 33°
2026-04-14 20:25 46.30747 -120.78912 36915 ft 458 kts 33°
2026-04-14 20:25 46.35486 -120.72736 36915 ft 460 kts 33°
2026-04-14 20:26 46.40220 -120.66544 36933 ft 461 kts 33°
2026-04-14 20:26 46.44975 -120.60312 36947 ft 462 kts 33°
2026-04-14 20:27 46.49721 -120.54072 36946 ft 461 kts 34°
2026-04-14 20:27 46.54443 -120.47852 36946 ft 462 kts 34°
2026-04-14 20:28 46.59178 -120.41579 36945 ft 464 kts 34°
2026-04-14 20:28 46.63897 -120.35232 36940 ft 465 kts 34°
2026-04-14 20:29 46.68652 -120.28815 36915 ft 466 kts 35°
2026-04-14 20:29 46.73373 -120.22427 36909 ft 465 kts 35°
2026-04-14 20:30 46.78081 -120.16043 36909 ft 465 kts 35°
2026-04-14 20:30 46.82822 -120.09610 36897 ft 466 kts 35°
2026-04-14 20:31 46.87534 -120.03193 36877 ft 468 kts 35°
2026-04-14 20:31 46.92312 -119.96667 36870 ft 469 kts 35°
2026-04-14 20:32 46.97031 -119.90203 36882 ft 467 kts 35°
2026-04-14 20:32 47.01774 -119.83694 36881 ft 467 kts 35°
2026-04-14 20:33 47.06496 -119.77197 36883 ft 467 kts 35°
2026-04-14 20:33 47.11189 -119.70723 36879 ft 469 kts 36°
2026-04-14 20:34 47.18296 -119.60889 36901 ft 470 kts 36°
2026-04-14 20:34 47.23049 -119.54285 36911 ft 470 kts 36°
2026-04-14 20:35 47.27783 -119.47698 36913 ft 471 kts 36°
2026-04-14 20:35 47.32532 -119.41067 36910 ft 471 kts 36°
2026-04-14 20:36 47.37272 -119.34437 36901 ft 470 kts 36°
2026-04-14 20:36 47.41990 -119.27821 36894 ft 471 kts 36°
2026-04-14 20:37 47.46746 -119.21134 36890 ft 473 kts 37°
2026-04-14 20:37 47.51475 -119.14462 36882 ft 472 kts 37°
2026-04-14 20:38 47.56194 -119.07789 36875 ft 473 kts 37°
2026-04-14 20:38 47.60926 -119.01083 36870 ft 473 kts 37°
2026-04-14 20:39 47.65682 -118.94325 36866 ft 474 kts 37°
2026-04-14 20:39 47.70416 -118.87575 36872 ft 473 kts 37°
2026-04-14 20:40 47.75149 -118.80810 36863 ft 475 kts 37°
2026-04-14 20:40 47.79890 -118.74017 36857 ft 474 kts 37°
2026-04-14 20:41 47.84605 -118.67245 36869 ft 474 kts 37°
2026-04-14 20:41 47.89345 -118.60422 36852 ft 475 kts 37°
2026-04-14 20:42 47.94056 -118.53615 36840 ft 475 kts 37°
2026-04-14 20:43 48.01142 -118.43346 36831 ft 476 kts 37°
2026-04-14 20:43 48.05846 -118.36504 36838 ft 475 kts 37°
2026-04-14 20:44 48.10565 -118.29633 36844 ft 476 kts 38°
2026-04-14 20:44 48.15331 -118.22658 36861 ft 476 kts 38°
2026-04-14 20:45 48.20039 -118.15755 36860 ft 476 kts 38°
2026-04-14 20:45 48.24737 -118.08852 36856 ft 475 kts 38°
2026-04-14 20:46 48.29459 -118.01895 36855 ft 477 kts 38°
2026-04-14 20:46 48.34154 -117.94952 36858 ft 476 kts 38°
2026-04-14 20:47 48.38868 -117.87964 36862 ft 475 kts 38°
2026-04-14 20:47 48.43561 -117.80991 36868 ft 476 kts 38°
2026-04-14 20:48 48.48232 -117.74031 36871 ft 476 kts 38°
2026-04-14 20:48 48.52935 -117.67010 36861 ft 478 kts 38°
2026-04-14 20:49 48.57615 -117.59988 36843 ft 476 kts 38°
2026-04-14 20:49 48.59953 -117.56479 36690 ft 477 kts 38°
2026-04-14 20:49 48.62287 -117.52971 36461 ft 476 kts 38°
2026-04-14 20:49 48.64610 -117.49469 36231 ft 474 kts 38°
2026-04-14 20:50 48.66952 -117.45940 35998 ft 472 kts 38°
2026-04-14 20:50 48.69263 -117.42448 35755 ft 471 kts 38°
2026-04-14 20:50 48.71562 -117.38969 35404 ft 471 kts 38°
2026-04-14 20:50 48.73877 -117.35463 34864 ft 473 kts 38°
2026-04-14 20:51 48.76214 -117.31927 34132 ft 476 kts 38°
2026-04-14 20:51 48.78524 -117.28430 33426 ft 477 kts 39°
2026-04-14 20:51 48.80869 -117.24870 32737 ft 478 kts 39°
2026-04-14 20:51 48.83192 -117.21336 32070 ft 478 kts 39°
2026-04-14 20:52 48.85549 -117.17744 31394 ft 478 kts 40°
2026-04-14 20:52 48.87869 -117.14207 30706 ft 478 kts 40°
2026-04-14 20:52 48.90225 -117.10606 30003 ft 479 kts 40°
2026-04-14 20:52 48.92562 -117.07022 29324 ft 479 kts 41°
2026-04-14 20:53 48.94870 -117.03481 28847 ft 474 kts 41°
2026-04-14 20:53 48.97174 -116.99934 28346 ft 470 kts 41°
2026-04-14 20:53 48.99435 -116.96449 27886 ft 465 kts 41°
2026-04-14 20:53 49.01703 -116.92956 27405 ft 461 kts 41°
2026-04-14 20:54 49.03933 -116.89515 26927 ft 456 kts 41°
2026-04-14 20:54 49.06127 -116.86123 26494 ft 451 kts 41°
2026-04-14 20:54 49.08324 -116.82725 26030 ft 446 kts 41°
2026-04-14 20:54 49.10480 -116.79385 25573 ft 442 kts 41°
2026-04-14 20:55 49.12626 -116.76060 25126 ft 438 kts 41°
2026-04-14 20:55 49.14730 -116.72799 24676 ft 434 kts 41°
2026-04-14 20:55 49.16832 -116.69535 24213 ft 431 kts 41°
2026-04-14 20:55 49.18924 -116.66278 23757 ft 427 kts 41°
2026-04-14 20:56 49.20990 -116.63060 23293 ft 425 kts 41°
2026-04-14 20:56 49.23055 -116.59838 22825 ft 423 kts 41°
2026-04-14 20:56 49.25096 -116.56657 22366 ft 421 kts 42°
2026-04-14 20:56 49.27123 -116.53488 21907 ft 419 kts 41°
2026-04-14 20:57 49.29149 -116.50314 21436 ft 417 kts 42°
2026-04-14 20:57 49.31177 -116.47136 20964 ft 416 kts 42°
2026-04-14 20:57 49.33164 -116.44019 20500 ft 414 kts 42°
2026-04-14 20:57 49.35190 -116.40836 20024 ft 413 kts 42°
2026-04-14 20:58 49.37162 -116.37736 19563 ft 412 kts 42°
2026-04-14 20:58 49.39151 -116.34604 19101 ft 410 kts 43°
2026-04-14 20:58 49.41150 -116.31456 18620 ft 409 kts 43°
2026-04-14 20:58 49.43101 -116.28368 18154 ft 407 kts 44°
2026-04-14 20:59 49.45058 -116.25272 17697 ft 405 kts 44°
2026-04-14 20:59 49.47035 -116.22144 17228 ft 404 kts 44°
2026-04-14 20:59 49.48974 -116.19071 16760 ft 403 kts 44°
2026-04-14 20:59 49.50922 -116.15977 16269 ft 402 kts 44°
2026-04-14 21:00 49.52853 -116.12904 15794 ft 401 kts 44°
2026-04-14 21:00 49.54873 -116.09994 15304 ft 396 kts 32°
2026-04-14 21:00 49.57259 -116.08086 14863 ft 385 kts 13°
2026-04-14 21:00 49.59805 -116.07105 14474 ft 376 kts
2026-04-14 21:01 49.62350 -116.06325 14061 ft 372 kts
2026-04-14 21:01 49.64864 -116.05570 13652 ft 369 kts
2026-04-14 21:01 49.67384 -116.04792 13213 ft 367 kts
2026-04-14 21:01 49.69843 -116.04006 12778 ft 364 kts
2026-04-14 21:02 49.72311 -116.03202 12343 ft 361 kts
2026-04-14 21:02 49.74754 -116.02396 11917 ft 358 kts
2026-04-14 21:02 49.77176 -116.01588 11499 ft 354 kts
2026-04-14 21:02 49.79565 -116.00793 11102 ft 350 kts
2026-04-14 21:03 49.81894 -116.00007 10941 ft 337 kts
2026-04-14 21:03 49.84145 -115.99248 10842 ft 323 kts
2026-04-14 21:03 49.86271 -115.98533 10704 ft 311 kts
2026-04-14 21:03 49.88326 -115.97844 10611 ft 298 kts
2026-04-14 21:04 49.90318 -115.97174 10528 ft 286 kts
2026-04-14 21:04 49.92210 -115.96537 10441 ft 274 kts
2026-04-14 21:04 49.93963 -115.95462 10245 ft 271 kts 38°
2026-04-14 21:04 49.95052 -115.93159 10007 ft 266 kts 75°
2026-04-14 21:05 49.95211 -115.90403 9765 ft 257 kts 97°
2026-04-14 21:05 49.95041 -115.87646 9509 ft 254 kts 98°
2026-04-14 21:05 49.94901 -115.84948 9254 ft 252 kts 95°
2026-04-14 21:05 49.94758 -115.82272 9017 ft 246 kts 109°
2026-04-14 21:06 49.93963 -115.80113 8961 ft 222 kts 143°
2026-04-14 21:06 49.92671 -115.79067 8835 ft 206 kts 171°
2026-04-14 21:06 49.91278 -115.78811 8591 ft 201 kts 181°
2026-04-14 21:06 49.89914 -115.78780 8383 ft 192 kts 182°
2026-04-14 21:07 49.88593 -115.78782 8110 ft 188 kts 182°
2026-04-14 21:07 49.87302 -115.78777 7844 ft 183 kts 182°
2026-04-14 21:07 49.86048 -115.78760 7586 ft 178 kts 181°
2026-04-14 21:07 49.84839 -115.78737 7342 ft 172 kts 181°
2026-04-14 21:08 49.83660 -115.78713 7104 ft 166 kts 181°
2026-04-14 21:08 49.82532 -115.78687 6883 ft 158 kts 181°
2026-04-14 21:08 49.81446 -115.78664 6682 ft 155 kts 180°
2026-04-14 21:08 49.80384 -115.78639 6499 ft 154 kts 180°
2026-04-14 21:09 49.79361 -115.78616 6295 ft 140 kts 180°
2026-04-14 21:09 49.78404 -115.78595 6110 ft 137 kts 180°
2026-04-14 21:09 49.77447 -115.78574 5951 ft 135 kts 180°
2026-04-14 21:09 49.76517 -115.78552 5789 ft 133 kts 180°
2026-04-14 21:10 49.75602 -115.78532 5624 ft 132 kts 179°
2026-04-14 21:10 49.74683 -115.78511 5460 ft 131 kts 179°
2026-04-14 21:10 49.73782 -115.78490 5277 ft 130 kts 180°
2026-04-14 21:10 49.72881 -115.78471 5113 ft 129 kts 180°
2026-04-14 21:11 49.71984 -115.78451 4943 ft 129 kts 180°
2026-04-14 21:11 49.71085 -115.78431 4769 ft 128 kts 180°
2026-04-14 21:11 49.70212 -115.78411 4586 ft 125 kts 179°
2026-04-14 21:11 49.69338 -115.78390 4426 ft 124 kts 180°
2026-04-14 21:12 49.68481 -115.78371 4246 ft 124 kts 179°
2026-04-14 21:12 49.67619 -115.78350 4093 ft 124 kts 180°
2026-04-14 21:12 49.66767 -115.78333 3925 ft 123 kts 179°
2026-04-14 21:12 49.65918 -115.78303 3802 ft 121 kts 179°
2026-04-14 21:13 49.65056 -115.78288 3657 ft 123 kts 180°
2026-04-14 21:13 49.64212 -115.78294 3543 ft 122 kts 180°
2026-04-14 21:13 49.63361 -115.78258 3295 ft 122 kts 178°
2026-04-14 21:14 49.61710 -115.78216 3042 ft 116 kts 179°
2026-04-14 21:14 49.61058 -115.78204 3057 ft 53 kts 180°
2026-04-14 21:14 49.60889 -115.78204 3066 ft 15 kts 179°
2026-04-14 21:14 49.60815 -115.78232 3067 ft 9 kts 257°
2026-04-14 21:15 49.60864 -115.78335 3062 ft 14 kts 316°
2026-04-14 21:15 49.60934 -115.78451 3059 ft 9 kts 308°
2026-04-14 21:15 49.61002 -115.78493 3056 ft 12 kts 358°
2026-04-14 21:15 49.61100 -115.78495 3054 ft 15 kts 359°
2026-04-14 21:16 49.61214 -115.78499 3051 ft 17 kts 358°
2026-04-14 21:16 49.61295 -115.78502 3048 ft 8 kts 359°
2026-04-14 21:16 49.61367 -115.78506 3044 ft 10 kts 348°
2026-04-14 21:16 49.61415 -115.78566 3043 ft 6 kts 311°
2026-04-14 21:17 49.61428 -115.78588 3042 ft 0 kts 312°